Temp
-6 -6 -6 -6 -6 -5 -5 -5 -5 -5 -5 -5 -5 -5 -5 -5 -5 -5 -5 -5 -5 -5 -5 -5 -5 -5 -5 -5 -5 -5 -5 -4 -4 -5 -5 -5 -5 -5 -5 -5 -5 -5 -5 -5 -4 -4 -5 -5 -5 -5 -5 -6 -6 -6 -6 -6 -6 -6 -6 -6 -6 -6 -6
-6 -6 -6 -6 -5 -5 -5 -5 -5 -5 -5 -5 -5 -5 -5 -5 -5 -5 -5 -5 -5 -5 -5 -5 -5 -5 -5 -5 -5 -5 -5 -4 -4 -5 -5 -5 -5 -5 -5 -5 -5 -5 -5 -5 -5 -5 -5 -5 -5 -5 -6 -6 -6 -6 -6 -6 -6 -6 -6 -6 -6 -6 -6
-6 -6 -6 -6 -5 -6 -6 -6 -6 -5 -5 -5 -5 -5 -5 -5 -5 -5 -5 -5 -5 -5 -5 -5 -5 -5 -5 -5 -5 -5 -4 -4 -5 -5 -5 -5 -5 -5 -5 -5 -5 -5 -5 -5 -5 -5 -5 -5 -5 -6 -6 -6 -6 -6 -6 -6 -6 -6 -6 -6 -6 -6 -6
-6 -6 -6 -6 -6 -6 -6 -6 -6 -6 -6 -5 -5 -5 -5 -5 -5 -5 -5 -5 -5 -5 -5 -5 -5 -5 -5 -5 -5 -5 -4 -4 -5 -5 -5 -5 -5 -5 -5 -5 -5 -5 -5 -5 -5 -6 -6 -6 -6 -6 -6 -6 -6 -6 -6 -6 -6 -6 -6 -6 -6 -6 -6
-6 -6 -6 -6 -6 -6 -6 -6 -6 -6 -6 -6 -5 -5 -5 -5 -5 -5 -5 -5 -5 -5 -5 -5 -5 -5 -5 -5 -5 -5 -4 -4 -5 -5 -5 -5 -5 -5 -5 -5 -5 -5 -5 -5 -6 -6 -6 -6 -6 -6 -6 -6 -6 -6 -6 -6 -6 -6 -6 -6 -6 -6 -6
-6 -6 -6 -6 -6 -6 -6 -6 -6 -6 -6 -6 -6 -6 -5 -5 -5 -5 -5 -5 -5 -5 -5 -5 -5 -5 -5 -5 -5 -5 -4 -4 -5 -5 -5 -5 -4 -5 -5 -5 -5 -5 -5 -5 -6 -6 -6 -6 -6 -6 -6 -6 -6 -6 -6 -6 -6 -6 -6 -6 -6 -6 -6
-6 -6 -6 -6 -6 -6 -6 -6 -6 -6 -6 -6 -6 -6 -6 -5 -5 -5 -5 -5 -5 -5 -5 -5 -5 -5 -5 -5 -5 -5 -4 -4 -4 -5 -5 -4 -4 -4 -5 -5 -5 -5 -5 -5 -6 -6 -6 -6 -6 -6 -6 -6 -6 -6 -6 -6 -6 -6 -6 -6 -6 -6 -6
-7 -7 -7 -6 -6 -6 -6 -6 -6 -6 -7 -6 -6 -6 -6 -6 -5 -5 -5 -5 -5 -5 -5 -5 -5 -5 -5 -5 -5 -4 -4 -4 -4 -5 -5 -4 -4 -4 -4 -5 -5 -5 -5 -5 -6 -6 -6 -6 -6 -6 -6 -6 -6 -6 -6 -6 -6 -6 -6 -6 -6 -6 -6
-7 -7 -7 -7 -7 -6 -6 -7 -7 -7 -7 -6 -6 -6 -6 -6 -6 -5 -5 -5 -5 -5 -5 -5 -5 -5 -5 -5 -5 -5 -4 -4 -4 -4 -4 -4 -4 -4 -4 -4 -5 -5 -5 -5 -6 -6 -6 -6 -6 -6 -6 -6 -6 -6 -6 -6 -6 -6 -6 -6 -6 -6 -6
-7 -7 -7 -7 -7 -7 -7 -7 -7 -7 -7 -7 -7 -7 -7 -6 -6 -6 -5 -5 -5 -5 -5 -5 -5 -5 -5 -5 -5 -5 -5 -4 -4 -4 -4 -4 -4 -4 -4 -4 -4 -4 -5 -5 -5 -6 -6 -6 -6 -6 -6 -6 -6 -6 -6 -6 -6 -6 -6 -6 -6 -6 -6
-7 -7 -7 -7 -7 -7 -7 -7 -7 -7 -6 -6 -7 -7 -7 -7 -6 -6 -5 -5 -5 -5 -5 -5 -5 -5 -5 -5 -5 -5 -4 -4 -4 -4 -4 -4 -4 -4 -4 -4 -4 -4 -5 -5 -5 -5 -6 -6 -6 -6 -6 -6 -6 -6 -6 -6 -6 -6 -6 -6 -5 -6 -6
-7 -7 -7 -7 -7 -7 -7 -7 -7 -7 -6 -7 -7 -7 -7 -7 -7 -6 -6 -5 -5 -5 -5 -5 -5 -5 -5 -5 -5 -5 -5 -4 -4 -4 -4 -4 -4 -4 -4 -4 -4 -4 -4 -5 -5 -5 -5 -6 -6 -6 -6 -6 -6 -6 -6 -6 -6 -6 -6 -5 -5 -6 -6
-7 -7 -7 -7 -8 -8 -8 -8 -8 -8 -7 -7 -7 -7 -7 -7 -7 -7 -6 -6 -5 -5 -5 -5 -5 -5 -5 -5 -5 -5 -5 -5 -4 -4 -4 -4 -4 -4 -4 -4 -4 -4 -4 -4 -5 -5 -5 -5 -5 -6 -6 -6 -5 -5 -5 -5 -5 -5 -5 -5 -6 -6 -6
-7 -7 -7 -8 -8 -8 -8 -8 -8 -8 -7 -7 -7 -8 -8 -8 -7 -7 -7 -6 -6 -5 -5 -5 -5 -5 -5 -5 -5 -5 -5 -5 -5 -5 -5 -5 -5 -4 -4 -4 -4 -4 -4 -4 -5 -5 -5 -5 -5 -5 -6 -5 -5 -5 -5 -5 -5 -5 -5 -6 -6 -6 -6
-7 -7 -7 -7 -8 -8 -8 -8 -8 -8 -7 -7 -7 -8 -8 -8 -8 -7 -7 -6 -6 -6 -5 -5 -5 -5 -5 -5 -5 -5 -5 -5 -5 -5 -5 -5 -5 -5 -4 -4 -4 -4 -4 -4 -5 -5 -5 -5 -5 -5 -5 -5 -5 -5 -5 -5 -5 -5 -5 -6 -6 -6 -6
-7 -7 -7 -7 -7 -7 -7 -8 -8 -8 -7 -7 -7 -8 -8 -8 -8 -7 -7 -7 -6 -6 -5 -5 -5 -5 -5 -5 -5 -5 -5 -5 -5 -5 -5 -5 -5 -5 -5 -4 -4 -4 -5 -5 -5 -5 -5 -5 -5 -5 -5 -5 -5 -5 -5 -5 -5 -5 -5 -5 -5 -5 -5
-7 -7 -7 -7 -7 -7 -7 -7 -8 -8 -8 -7 -7 -7 -8 -8 -8 -7 -7 -7 -7 -6 -6 -5 -5 -5 -5 -5 -5 -5 -5 -5 -5 -5 -5 -5 -5 -5 -5 -5 -4 -5 -5 -5 -5 -5 -5 -5 -5 -5 -5 -5 -5 -5 -5 -5 -5 -5 -5 -5 -5 -5 -5
-7 -7 -7 -7 -7 -7 -7 -7 -7 -8 -8 -7 -7 -7 -8 -8 -8 -7 -7 -7 -7 -6 -6 -6 -5 -5 -5 -5 -5 -5 -5 -5 -5 -5 -5 -5 -5 -5 -5 -5 -5 -5 -5 -5 -5 -5 -5 -5 -5 -5 -5 -5 -5 -5 -5 -5 -5 -5 -5 -5 -5 -5 -5
-7 -7 -7 -7 -7 -7 -7 -7 -7 -8 -8 -7 -7 -8 -8 -8 -8 -8 -7 -7 -7 -7 -6 -6 -6 -6 -5 -5 -5 -5 -5 -5 -5 -5 -5 -5 -5 -5 -5 -5 -5 -5 -5 -5 -5 -5 -5 -5 -5 -5 -5 -5 -5 -5 -5 -5 -5 -5 -5 -5 -5 -5 -5
-7 -7 -7 -7 -7 -7 -7 -7 -7 -7 -7 -7 -7 -8 -8 -8 -8 -8 -8 -7 -7 -7 -7 -7 -6 -6 -6 -5 -5 -5 -5 -5 -5 -5 -5 -5 -5 -5 -5 -5 -5 -5 -5 -5 -5 -5 -5 -5 -5 -5 -5 -5 -5 -5 -5 -5 -5 -5 -5 -5 -5 -5 -5
-7 -7 -7 -7 -7 -7 -7 -7 -7 -7 -7 -7 -7 -7 -8 -8 -8 -8 -8 -7 -7 -7 -7 -7 -7 -6 -6 -6 -5 -5 -5 -5 -5 -5 -5 -5 -5 -5 -5 -5 -5 -5 -5 -5 -5 -5 -5 -5 -5 -5 -5 -5 -5 -5 -5 -5 -5 -5 -5 -5 -5 -5 -5
-7 -7 -7 -7 -7 -7 -7 -6 -6 -6 -7 -7 -7 -7 -7 -7 -8 -8 -8 -7 -7 -7 -7 -7 -7 -6 -6 -6 -6 -5 -5 -5 -5 -5 -5 -5 -5 -5 -5 -5 -5 -5 -5 -5 -5 -5 -5 -5 -5 -5 -5 -5 -5 -5 -5 -5 -5 -5 -6 -6 -5 -5 -5
-7 -7 -7 -7 -7 -7 -6 -6 -6 -6 -6 -6 -6 -7 -7 -7 -7 -8 -8 -7 -7 -8 -7 -7 -7 -7 -6 -6 -6 -6 -5 -5 -5 -5 -5 -5 -5 -6 -5 -5 -5 -5 -5 -5 -5 -5 -5 -5 -5 -5 -5 -5 -5 -5 -5 -5 -5 -6 -6 -6 -5 -5 -5
-6 -6 -7 -7 -7 -7 -6 -6 -6 -6 -6 -6 -6 -7 -7 -7 -7 -8 -8 -7 -7 -7 -7 -7 -7 -7 -6 -6 -6 -6 -6 -5 -5 -5 -5 -5 -6 -6 -6 -5 -5 -5 -5 -5 -5 -5 -5 -5 -5 -5 -5 -5 -5 -5 -5 -6 -6 -6 -6 -5 -5 -5 -5
-6 -6 -6 -7 -6 -6 -6 -6 -6 -6 -6 -6 -6 -7 -7 -7 -7 -8 -8 -7 -7 -7 -7 -7 -7 -7 -6 -6 -6 -6 -6 -5 -5 -5 -5 -5 -5 -6 -6 -6 -5 -5 -5 -5 -5 -6 -6 -6 -6 -6 -6 -6 -5 -5 -5 -6 -6 -6 -6 -6 -6 -6 -6
-7 -7 -6 -6 -6 -6 -6 -7 -6 -6 -6 -6 -6 -6 -6 -6 -7 -8 -7 -7 -7 -7 -7 -7 -7 -7 -7 -6 -6 -6 -6 -6 -5 -5 -5 -5 -5 -6 -6 -5 -5 -5 -5 -6 -6 -6 -6 -6 -6 -6 -6 -6 -6 -6 -6 -6 -6 -6 -6 -6 -6 -6 -6
-7 -7 -7 -6 -6 -6 -7 -7 -7 -6 -6 -6 -6 -6 -6 -7 -7 -7 -7 -7 -8 -7 -7 -7 -8 -7 -7 -6 -6 -6 -6 -6 -5 -5 -5 -5 -5 -6 -6 -6 -5 -6 -6 -6 -6 -6 -6 -6 -6 -6 -6 -6 -6 -6 -6 -6 -6 -6 -6 -6 -6 -6 -6
-8 -8 -7 -7 -7 -7 -7 -7 -7 -6 -6 -6 -6 -6 -6 -7 -7 -7 -7 -8 -8 -7 -7 -7 -8 -7 -7 -6 -6 -6 -6 -6 -6 -6 -6 -6 -6 -6 -6 -6 -6 -6 -6 -6 -6 -6 -6 -6 -6 -6 -6 -6 -6 -6 -6 -6 -6 -6 -6 -6 -6 -6 -6
-8 -8 -8 -7 -7 -7 -7 -7 -6 -6 -6 -6 -6 -6 -6 -7 -7 -7 -7 -8 -8 -7 -7 -7 -7 -7 -6 -6 -6 -6 -6 -6 -6 -6 -6 -6 -6 -6 -6 -6 -6 -6 -6 -6 -6 -6 -6 -6 -6 -6 -6 -6 -6 -6 -6 -6 -6 -6 -6 -6 -6 -6 -6
-8 -8 -8 -7 -7 -7 -7 -7 -6 -6 -6 -6 -6 -6 -6 -7 -7 -7 -8 -8 -8 -7 -7 -7 -7 -7 -6 -6 -6 -6 -6 -6 -6 -6 -6 -6 -6 -6 -6 -6 -6 -6 -6 -6 -6 -6 -6 -6 -6 -6 -6 -6 -6 -6 -6 -6 -7 -7 -7 -6 -6 -6 -6
-8 -8 -7 -7 -7 -7 -7 -7 -6 -6 -6 -6 -6 -6 -7 -7 -7 -8 -8 -8 -7 -7 -7 -7 -7 -7 -7 -7 -7 -7 -7 -7 -6 -6 -6 -6 -6 -6 -7 -7 -6 -6 -6 -6 -6 -6 -6 -6 -6 -6 -6 -7 -7 -7 -7 -7 -7 -7 -7 -7 -7 -7 -7
-8 -8 -8 -7 -7 -7 -7 -7 -6 -6 -6 -6 -6 -6 -7 -7 -8 -8 -8 -8 -8 -8 -7 -7 -7 -7 -7 -7 -7 -7 -7 -7 -7 -7 -7 -7 -7 -7 -7 -7 -7 -7 -7 -7 -7 -7 -7 -7 -7 -7 -7 -7 -7 -7 -7 -7 -7 -7 -7 -7 -7 -7 -7
-8 -8 -8 -7 -7 -7 -7 -7 -6 -6 -6 -7 -7 -7 -7 -7 -8 -8 -8 -8 -8 -8 -8 -7 -7 -7 -7 -7 -7 -7 -7 -7 -7 -7 -7 -7 -7 -7 -7 -7 -7 -7 -7 -7 -7 -7 -7 -7 -7 -7 -7 -7 -7 -7 -7 -7 -7 -7 -7 -7 -7 -8 -8
-8 -8 -7 -7 -7 -7 -7 -7 -7 -6 -7 -7 -7 -7 -7 -7 -8 -8 -8 -8 -8 -8 -8 -8 -8 -7 -8 -8 -8 -8 -7 -7 -7 -7 -7 -8 -8 -7 -7 -7 -7 -7 -8 -8 -8 -8 -8 -8 -8 -8 -8 -8 -8 -8 -8 -8 -8 -8 -7 -8 -8 -8 -8
-8 -8 -7 -7 -7 -7 -7 -7 -7 -7 -7 -7 -7 -7 -7 -8 -8 -8 -8 -8 -8 -8 -8 -8 -8 -8 -8 -8 -8 -8 -8 -7 -7 -8 -8 -8 -8 -8 -8 -8 -8 -8 -8 -8 -8 -8 -8 -8 -8 -8 -8 -8 -8 -8 -8 -8 -8 -8 -8 -8 -8 -8 -8
-8 -7 -7 -7 -7 -7 -7 -7 -7 -8 -8 -8 -8 -8 -8 -8 -8 -8 -8 -8 -8 -8 -8 -8 -8 -8 -8 -8 -8 -8 -8 -8 -8 -8 -8 -8 -8 -8 -8 -8 -8 -8 -8 -8 -8 -8 -8 -8 -8 -8 -8 -8 -8 -8 -8 -8 -8 -8 -8 -8 -8 -8 -8
-8 -7 -7 -7 -7 -7 -7 -7 -7 -8 -8 -8 -8 -8 -8 -8 -8 -8 -8 -8 -8 -8 -8 -8 -8 -8 -8 -8 -8 -8 -8 -8 -8 -8 -8 -8 -8 -8 -8 -8 -8 -8 -8 -8 -8 -8 -8 -8 -8 -8 -8 -8 -8 -8 -8 -8 -8 -8 -8 -8 -8 -8 -8
-8 -7 -7 -7 -7 -7 -7 -7 -7 -7 -8 -8 -8 -8 -8 -8 -8 -8 -8 -8 -8 -8 -8 -8 -8 -8 -8 -8 -8 -8 -8 -8 -8 -8 -8 -8 -8 -8 -8 -8 -8 -8 -8 -8 -8 -8 -8 -8 -8 -8 -8 -8 -8 -8 -8 -8 -8 -8 -8 -8 -8 -8 -8
Height
5882 5885 5887 5890 5892 5894 5896 5898 5900 5901 5901 5902 5902 5903 5904 5906 5907 5909 5912 5914 5916 5918 5920 5922 5924 5927 5929 5930 5931 5933 5935 5937 5939 5940 5941 5943 5944 5946 5947 5949 5950 5951 5952 5953 5955 5956 5957 5958 5959 5960 5961 5962 5962 5963 5964 5964 5964 5965 5965 5966 5966 5967 5967
5879 5883 5885 5888 5890 5893 5894 5896 5898 5900 5901 5901 5902 5902 5904 5905 5906 5908 5910 5912 5914 5916 5918 5920 5923 5925 5927 5929 5930 5932 5933 5935 5937 5939 5941 5942 5943 5945 5946 5948 5949 5950 5951 5953 5954 5955 5956 5957 5958 5959 5960 5961 5962 5963 5964 5964 5965 5965 5966 5966 5967 5967 5968
5878 5881 5884 5887 5889 5891 5893 5894 5897 5898 5900 5901 5902 5903 5903 5904 5905 5906 5908 5910 5912 5914 5916 5918 5921 5923 5925 5927 5929 5931 5932 5934 5936 5938 5939 5941 5942 5943 5945 5946 5948 5949 5951 5952 5953 5954 5956 5957 5957 5958 5960 5961 5962 5963 5964 5965 5965 5966 5966 5967 5968 5968 5968
5876 5879 5882 5885 5887 5889 5890 5892 5895 5896 5898 5899 5901 5902 5903 5903 5904 5905 5906 5908 5909 5912 5914 5917 5918 5920 5922 5925 5927 5929 5931 5933 5935 5937 5938 5939 5940 5942 5944 5945 5947 5948 5950 5951 5952 5953 5955 5956 5957 5958 5959 5960 5961 5963 5964 5965 5965 5966 5967 5968 5968 5968 5968
5874 5877 5880 5882 5885 5886 5888 5891 5893 5894 5896 5897 5899 5900 5901 5902 5902 5903 5905 5906 5908 5910 5912 5913 5915 5917 5920 5922 5925 5927 5930 5932 5934 5935 5936 5938 5939 5941 5943 5944 5946 5947 5949 5950 5951 5952 5953 5955 5956 5957 5958 5959 5961 5962 5963 5964 5965 5966 5967 5968 5968 5968 5968
5872 5875 5877 5880 5882 5884 5887 5889 5891 5893 5894 5895 5897 5898 5900 5900 5901 5903 5903 5905 5906 5908 5909 5911 5913 5915 5918 5920 5923 5925 5928 5930 5932 5933 5935 5936 5938 5940 5942 5943 5944 5946 5947 5949 5950 5951 5952 5954 5955 5956 5957 5958 5960 5961 5963 5964 5965 5966 5967 5967 5968 5968 5968
5869 5872 5875 5878 5880 5882 5885 5887 5889 5891 5892 5893 5894 5896 5897 5898 5900 5901 5902 5903 5905 5906 5908 5910 5912 5915 5916 5918 5921 5923 5925 5928 5930 5931 5933 5935 5936 5938 5940 5941 5943 5944 5946 5948 5949 5950 5952 5953 5954 5955 5956 5958 5959 5960 5962 5963 5964 5965 5966 5967 5967 5968 5968
5865 5869 5872 5875 5878 5880 5882 5884 5887 5888 5889 5890 5892 5893 5895 5897 5898 5899 5901 5903 5904 5905 5907 5909 5911 5913 5915 5917 5919 5921 5923 5925 5927 5929 5931 5933 5935 5936 5938 5940 5941 5943 5944 5946 5948 5949 5950 5951 5953 5954 5955 5956 5958 5959 5961 5962 5963 5964 5965 5966 5966 5967 5967
5862 5866 5869 5872 5875 5877 5880 5882 5883 5885 5886 5888 5890 5892 5894 5895 5896 5898 5899 5901 5902 5904 5906 5908 5909 5911 5913 5915 5917 5919 5921 5923 5926 5928 5929 5931 5933 5934 5936 5938 5939 5941 5943 5945 5946 5948 5949 5950 5952 5953 5954 5955 5957 5958 5959 5961 5962 5963 5964 5964 5965 5966 5966
5860 5863 5867 5869 5872 5874 5876 5878 5879 5881 5883 5885 5888 5890 5891 5892 5894 5896 5897 5898 5900 5902 5904 5905 5907 5909 5911 5913 5915 5917 5918 5921 5924 5926 5928 5930 5931 5933 5934 5936 5937 5939 5941 5942 5944 5946 5947 5949 5950 5952 5953 5954 5955 5957 5958 5959 5960 5961 5962 5963 5964 5964 5964
5856 5860 5863 5866 5868 5870 5872 5874 5876 5878 5881 5884 5885 5887 5889 5890 5892 5893 5895 5897 5898 5900 5901 5902 5904 5906 5909 5911 5912 5914 5916 5919 5922 5924 5926 5928 5929 5931 5932 5933 5935 5937 5939 5940 5942 5944 5945 5947 5949 5950 5952 5953 5954 5955 5956 5957 5959 5960 5961 5962 5962 5963 5963
5852 5856 5860 5862 5864 5866 5868 5870 5873 5876 5879 5881 5883 5885 5887 5888 5890 5891 5893 5895 5896 5898 5899 5900 5902 5904 5906 5908 5909 5912 5915 5917 5920 5922 5924 5926 5928 5929 5930 5932 5933 5935 5936 5938 5940 5942 5943 5945 5947 5948 5950 5951 5952 5953 5955 5956 5957 5958 5959 5960 5961 5962 5962
5849 5852 5855 5858 5859 5861 5864 5866 5869 5872 5875 5878 5880 5882 5885 5886 5888 5889 5891 5892 5894 5895 5897 5898 5900 5902 5904 5905 5907 5910 5913 5915 5918 5920 5922 5924 5925 5927 5929 5930 5932 5933 5934 5936 5938 5940 5941 5943 5945 5947 5948 5949 5950 5952 5953 5954 5956 5957 5958 5959 5959 5960 5960
5845 5848 5850 5852 5855 5858 5861 5863 5866 5868 5871 5875 5876 5879 5881 5883 5885 5886 5888 5890 5891 5893 5895 5896 5898 5900 5902 5903 5905 5908 5910 5912 5914 5917 5919 5921 5922 5924 5926 5928 5930 5931 5932 5934 5936 5938 5939 5941 5943 5944 5945 5947 5948 5950 5951 5953 5954 5955 5956 5957 5958 5958 5959
5841 5843 5845 5848 5851 5854 5857 5860 5863 5865 5868 5871 5873 5875 5878 5880 5882 5884 5885 5887 5889 5891 5893 5894 5897 5898 5900 5901 5904 5906 5908 5909 5911 5913 5915 5917 5919 5922 5924 5926 5928 5929 5930 5932 5934 5935 5937 5938 5940 5942 5943 5945 5946 5948 5949 5951 5952 5953 5954 5955 5956 5956 5957
5835 5838 5841 5844 5847 5850 5853 5856 5859 5861 5864 5867 5869 5871 5874 5877 5879 5882 5884 5885 5887 5889 5890 5892 5895 5896 5898 5900 5902 5904 5905 5906 5908 5910 5912 5914 5917 5919 5921 5923 5925 5927 5928 5930 5932 5933 5935 5936 5938 5940 5941 5942 5944 5946 5948 5949 5950 5951 5952 5953 5954 5954 5955
5831 5834 5837 5840 5843 5846 5849 5852 5855 5858 5861 5864 5866 5869 5871 5874 5877 5879 5881 5883 5885 5886 5888 5890 5892 5894 5896 5898 5900 5901 5902 5904 5906 5907 5909 5911 5913 5916 5918 5920 5922 5924 5926 5928 5929 5931 5932 5934 5936 5937 5939 5940 5942 5944 5946 5947 5948 5949 5950 5951 5952 5953 5953
5828 5831 5833 5836 5839 5842 5846 5848 5851 5854 5857 5861 5864 5866 5869 5872 5874 5875 5877 5880 5883 5884 5886 5888 5890 5892 5894 5896 5897 5898 5900 5901 5903 5905 5906 5908 5911 5913 5915 5917 5919 5921 5924 5925 5927 5929 5930 5932 5934 5935 5937 5938 5940 5942 5943 5945 5946 5947 5948 5949 5950 5951 5951
5824 5827 5830 5833 5836 5839 5842 5845 5847 5850 5853 5857 5860 5863 5867 5870 5872 5873 5875 5878 5881 5882 5883 5885 5887 5889 5891 5892 5895 5897 5898 5899 5901 5903 5904 5906 5908 5910 5912 5914 5917 5919 5921 5923 5924 5926 5928 5930 5932 5933 5934 5936 5938 5940 5941 5942 5944 5945 5946 5947 5948 5949 5950
5820 5823 5826 5829 5832 5836 5839 5841 5843 5846 5849 5853 5856 5861 5864 5867 5870 5871 5871 5874 5877 5878 5880 5882 5883 5885 5887 5889 5892 5894 5895 5896 5898 5900 5902 5904 5905 5907 5909 5912 5914 5916 5918 5920 5922 5924 5926 5928 5929 5931 5933 5934 5936 5937 5939 5940 5942 5943 5944 5945 5946 5947 5948
5815 5819 5822 5826 5829 5832 5835 5837 5839 5843 5846 5850 5854 5857 5860 5862 5866 5867 5867 5870 5874 5875 5877 5879 5880 5882 5884 5886 5889 5891 5892 5894 5896 5898 5899 5901 5903 5905 5907 5909 5911 5913 5915 5917 5919 5921 5923 5925 5927 5928 5930 5932 5934 5935 5936 5938 5939 5940 5942 5943 5944 5945 5946
5812 5815 5819 5822 5825 5828 5830 5833 5836 5840 5844 5848 5850 5853 5856 5859 5863 5864 5865 5867 5870 5872 5874 5876 5877 5879 5881 5883 5886 5888 5890 5892 5893 5895 5897 5898 5900 5903 5905 5907 5909 5911 5912 5914 5916 5918 5920 5922 5924 5926 5928 5930 5931 5933 5934 5935 5937 5938 5939 5940 5942 5943 5944
5808 5812 5816 5819 5821 5823 5826 5829 5834 5838 5842 5844 5846 5849 5853 5856 5860 5861 5861 5863 5867 5869 5871 5873 5874 5876 5878 5880 5883 5885 5887 5889 5890 5892 5894 5895 5898 5900 5903 5905 5907 5908 5909 5911 5913 5915 5917 5919 5921 5923 5925 5927 5929 5931 5932 5933 5934 5936 5937 5938 5939 5941 5942
5804 5808 5812 5815 5816 5819 5822 5826 5832 5836 5839 5841 5844 5847 5850 5852 5856 5858 5858 5860 5864 5866 5868 5870 5872 5874 5875 5877 5880 5882 5884 5886 5887 5889 5891 5893 5895 5898 5900 5902 5903 5905 5906 5908 5910 5912 5914 5916 5918 5920 5922 5924 5926 5928 5929 5930 5931 5933 5934 5936 5937 5939 5940
5800 5804 5808 5811 5813 5816 5820 5824 5828 5832 5835 5838 5841 5844 5846 5849 5853 5854 5855 5857 5861 5863 5865 5868 5870 5872 5873 5875 5877 5879 5881 5882 5884 5886 5888 5890 5892 5894 5896 5898 5900 5901 5903 5905 5907 5909 5911 5913 5915 5918 5920 5921 5923 5925 5926 5927 5929 5931 5932 5933 5935 5936 5937
5797 5800 5804 5807 5810 5814 5818 5821 5824 5827 5830 5834 5837 5839 5842 5846 5850 5851 5852 5855 5858 5860 5863 5866 5868 5868 5869 5871 5874 5876 5878 5880 5881 5883 5885 5887 5889 5891 5893 5894 5896 5898 5900 5902 5904 5906 5909 5911 5913 5915 5917 5918 5920 5922 5923 5924 5926 5928 5929 5931 5932 5934 5935
5794 5797 5799 5803 5807 5811 5814 5817 5819 5823 5826 5829 5832 5835 5838 5843 5846 5847 5849 5852 5856 5858 5861 5864 5864 5864 5865 5868 5871 5873 5875 5877 5879 5881 5882 5884 5886 5887 5889 5891 5893 5895 5897 5899 5901 5904 5906 5908 5910 5912 5914 5916 5917 5919 5921 5922 5923 5925 5927 5928 5930 5931 5932
5790 5793 5796 5800 5804 5807 5810 5813 5816 5818 5821 5824 5827 5830 5834 5839 5842 5843 5846 5850 5854 5857 5859 5860 5860 5860 5863 5866 5868 5870 5873 5874 5876 5878 5879 5881 5882 5884 5886 5888 5890 5892 5894 5896 5898 5901 5903 5905 5907 5909 5911 5913 5915 5917 5918 5920 5921 5923 5924 5925 5927 5928 5929
5787 5790 5793 5797 5800 5803 5806 5809 5812 5814 5817 5820 5823 5825 5830 5835 5838 5840 5844 5849 5852 5853 5855 5856 5856 5858 5861 5864 5866 5868 5870 5872 5873 5875 5877 5878 5880 5882 5883 5885 5887 5890 5892 5894 5896 5898 5900 5903 5905 5906 5908 5910 5912 5914 5916 5917 5918 5919 5921 5922 5923 5924 5925
5784 5787 5790 5794 5797 5800 5803 5805 5808 5810 5813 5815 5818 5821 5826 5831 5834 5838 5843 5847 5848 5849 5851 5853 5854 5856 5859 5862 5864 5866 5867 5869 5871 5872 5874 5876 5877 5879 5881 5883 5885 5887 5889 5891 5893 5896 5898 5900 5901 5903 5905 5907 5909 5911 5913 5914 5915 5916 5917 5918 5919 5920 5921
5781 5784 5787 5790 5793 5796 5799 5802 5804 5806 5809 5812 5815 5818 5823 5827 5832 5836 5840 5842 5843 5845 5848 5850 5852 5855 5858 5860 5861 5863 5864 5866 5868 5869 5871 5873 5875 5877 5879 5880 5882 5885 5887 5889 5891 5893 5895 5896 5898 5901 5902 5904 5906 5908 5909 5910 5911 5912 5914 5915 5915 5916 5917
5777 5781 5784 5787 5790 5793 5796 5798 5801 5803 5805 5808 5812 5816 5820 5824 5829 5833 5836 5838 5840 5842 5844 5847 5850 5853 5855 5857 5858 5860 5861 5863 5865 5867 5868 5870 5872 5874 5876 5878 5880 5882 5884 5886 5888 5890 5892 5893 5895 5897 5899 5901 5903 5905 5906 5907 5908 5909 5910 5911 5912 5912 5913
5774 5777 5781 5783 5786 5789 5792 5795 5797 5800 5802 5805 5809 5813 5818 5822 5825 5829 5831 5834 5836 5838 5841 5844 5847 5850 5852 5853 5855 5856 5858 5860 5862 5863 5865 5867 5869 5871 5873 5875 5877 5879 5881 5883 5885 5887 5888 5890 5892 5895 5896 5898 5900 5901 5902 5903 5904 5906 5907 5907 5908 5909 5909
5771 5774 5777 5780 5783 5786 5789 5792 5794 5797 5800 5803 5806 5811 5815 5819 5823 5826 5828 5830 5832 5835 5838 5841 5844 5847 5849 5850 5851 5853 5855 5857 5858 5860 5862 5864 5866 5868 5870 5873 5875 5877 5879 5880 5882 5883 5885 5887 5889 5891 5893 5895 5896 5897 5899 5900 5901 5902 5903 5904 5905 5906 5906
5767 5771 5774 5777 5780 5783 5786 5789 5792 5795 5797 5801 5804 5809 5813 5816 5819 5822 5824 5826 5829 5832 5835 5838 5841 5843 5844 5846 5847 5849 5851 5853 5855 5857 5859 5861 5863 5865 5868 5870 5872 5874 5876 5877 5879 5881 5883 5884 5886 5888 5890 5891 5892 5894 5896 5897 5897 5898 5899 5900 5901 5903 5904
5763 5767 5770 5773 5777 5780 5783 5786 5789 5792 5795 5798 5802 5806 5809 5813 5815 5818 5820 5823 5826 5828 5831 5834 5837 5839 5840 5842 5843 5844 5847 5849 5851 5853 5855 5857 5860 5863 5865 5867 5869 5871 5873 5874 5876 5878 5880 5881 5883 5885 5886 5887 5889 5891 5893 5893 5894 5896 5897 5897 5899 5900 5901
5758 5762 5766 5770 5773 5776 5780 5783 5786 5789 5792 5796 5799 5802 5806 5809 5812 5815 5818 5820 5822 5825 5827 5830 5832 5835 5837 5838 5839 5841 5843 5845 5847 5850 5852 5854 5857 5859 5861 5863 5865 5867 5869 5871 5873 5875 5876 5878 5880 5882 5883 5884 5886 5888 5889 5890 5891 5893 5893 5894 5895 5897 5898
5755 5759 5763 5766 5770 5773 5776 5780 5783 5786 5789 5792 5796 5799 5802 5805 5808 5811 5814 5817 5819 5822 5824 5826 5828 5831 5833 5834 5836 5838 5841 5842 5844 5846 5849 5851 5853 5855 5857 5859 5862 5863 5866 5868 5869 5871 5873 5874 5876 5878 5879 5881 5883 5885 5885 5886 5888 5889 5889 5890 5891 5892 5893
Wind_Speed
39 38 37 35 33 32 29 25 22 20 19 19 19 20 22 24 25 27 28 29 28 28 29 30 31 32 31 31 30 30 28 25 23 22 22 22 20 18 17 17 17 17 17 17 16 15 15 15 14 14 13 13 14 13 13 13 12 12 11 11 11 10 10
40 39 38 36 34 32 29 26 23 21 21 20 19 20 21 23 24 26 28 30 29 29 29 30 31 32 32 32 31 30 28 26 24 24 23 23 21 20 19 18 18 18 17 16 15 15 16 16 16 15 15 15 15 15 14 14 13 13 13 12 12 11 10
39 38 37 36 34 32 30 27 24 22 22 21 19 18 19 21 23 26 29 31 31 31 30 31 32 33 34 34 33 31 29 27 26 25 25 24 23 22 20 19 19 19 17 16 15 15 16 17 17 17 17 18 17 17 16 15 15 14 13 12 11 10 9
39 38 37 36 35 33 32 29 25 24 23 22 21 19 19 21 24 26 29 31 33 32 31 31 32 34 35 35 34 32 30 28 26 27 27 26 25 23 22 21 20 19 18 16 16 16 17 18 18 18 19 20 19 18 16 15 13 12 10 9 8 7 6
39 38 38 37 36 35 33 30 27 25 25 24 23 21 20 21 24 26 29 31 33 33 33 33 34 35 36 36 36 34 31 29 28 29 29 28 26 24 22 22 21 19 19 18 17 18 19 19 20 21 21 21 19 18 15 13 11 9 8 7 6 6 6
39 39 39 38 38 36 34 31 28 26 26 26 25 23 22 21 23 26 29 31 33 34 34 35 35 36 36 37 37 36 33 31 30 30 30 28 27 25 24 24 22 21 20 19 19 19 20 21 22 23 22 21 19 17 14 12 9 8 7 6 6 6 7
41 40 40 39 38 37 35 32 30 28 28 28 28 26 25 24 23 25 29 31 32 34 34 34 34 35 36 37 38 37 35 33 32 32 31 29 27 26 26 25 23 22 21 20 20 21 21 22 23 23 23 21 19 16 14 11 9 7 7 7 7 7 7
43 41 41 40 39 37 36 34 32 30 30 31 31 29 27 26 25 25 27 30 32 33 33 33 33 34 36 37 37 37 36 35 34 34 33 31 29 28 27 25 24 24 22 21 22 22 22 23 24 23 22 21 19 16 14 12 9 8 8 8 8 8 9
43 42 41 40 39 38 37 35 34 33 33 33 32 30 29 29 27 26 27 30 32 32 32 32 32 33 36 37 37 37 37 36 34 34 34 32 30 29 28 27 27 25 24 23 23 24 23 24 24 24 23 21 19 17 15 13 11 10 9 9 9 9 9
44 42 41 40 40 40 39 38 38 37 36 35 33 32 32 31 29 28 28 30 32 32 32 33 33 34 35 36 37 38 38 37 35 35 34 33 31 30 30 29 29 27 26 25 25 25 25 25 25 25 23 22 20 18 17 15 13 11 11 10 9 9 10
46 44 42 42 42 41 41 40 40 38 36 35 35 34 33 33 32 30 29 30 32 33 33 34 34 34 34 35 37 38 38 37 36 36 35 34 33 32 31 31 30 29 28 27 26 27 27 26 26 26 25 23 22 20 19 16 14 12 12 11 10 10 10
46 45 44 44 43 42 41 40 39 38 35 35 36 35 34 34 33 31 29 30 32 33 34 35 35 34 34 35 36 37 37 37 36 36 36 36 35 34 33 32 32 31 30 29 28 28 28 28 27 27 26 26 24 22 20 17 15 13 13 11 10 10 11
47 47 47 46 44 43 41 39 39 38 35 35 37 36 35 35 34 33 31 30 31 34 35 35 35 35 35 35 35 35 36 36 37 37 37 37 36 35 34 33 33 33 32 31 30 30 29 29 28 28 28 27 26 23 21 18 16 14 13 12 11 11 12
50 51 50 48 46 44 41 39 39 38 34 35 38 38 37 37 36 35 33 31 31 33 35 35 35 35 36 36 35 34 34 35 37 37 38 38 38 37 35 34 34 34 34 33 32 31 31 31 30 30 30 28 26 24 21 18 16 15 15 13 13 13 13
54 54 52 50 48 45 43 41 40 39 36 36 39 40 39 39 38 37 35 33 32 33 34 35 35 35 36 36 35 33 33 34 36 37 38 39 39 38 37 35 35 35 35 34 33 33 33 32 32 31 30 29 27 25 22 19 18 17 16 15 14 14 14
57 56 54 52 51 48 46 44 42 41 39 38 40 42 41 39 39 38 37 35 33 33 33 35 35 35 36 35 35 34 34 34 34 36 38 39 39 39 38 37 36 35 35 34 34 34 34 34 33 32 31 30 28 25 22 21 20 19 18 16 15 15 14
59 58 57 55 53 51 49 47 45 44 42 40 41 43 42 40 40 40 39 37 35 33 32 33 35 35 35 35 35 35 35 35 34 35 37 38 39 39 39 38 37 36 35 35 35 35 35 35 34 33 33 31 29 26 23 22 22 21 19 17 16 15 14
60 59 58 57 55 53 52 50 48 47 45 42 41 43 43 41 41 41 41 38 36 33 32 32 33 34 35 36 36 36 36 36 35 36 36 37 38 39 39 39 38 37 35 35 35 35 35 35 35 35 34 32 30 27 25 23 23 22 20 18 17 16 15
60 60 59 58 57 55 54 53 51 50 47 44 43 43 43 42 41 41 41 38 36 34 33 31 31 33 34 35 36 36 36 37 36 36 36 36 37 38 39 39 38 36 35 35 35 35 35 35 35 35 35 33 31 28 27 25 24 22 21 20 18 16 15
60 61 60 59 58 57 55 54 53 52 50 47 45 44 44 44 43 43 43 40 37 35 34 33 32 33 33 34 34 35 37 37 37 36 37 37 37 38 38 38 37 36 35 35 35 34 35 35 35 35 35 34 32 30 29 27 25 23 22 21 19 17 16
58 59 59 59 58 57 56 56 54 53 51 48 46 45 46 45 44 45 45 41 37 36 35 34 34 34 34 33 33 35 36 36 36 36 37 37 38 38 37 37 37 36 36 35 35 34 34 35 35 35 34 33 33 31 30 28 26 24 23 22 21 18 17
57 58 58 57 57 57 57 56 53 51 50 48 47 46 46 45 43 44 45 42 38 38 37 36 36 35 35 34 33 34 35 35 36 36 37 37 38 37 37 37 37 37 36 36 35 35 35 35 35 34 34 33 33 32 30 28 27 25 24 23 22 20 18
54 57 57 58 58 58 58 56 53 50 48 47 47 47 46 45 44 45 46 43 41 40 39 37 37 36 35 35 33 33 34 34 35 35 36 37 37 37 36 36 37 37 37 36 35 34 34 34 34 34 33 33 33 31 30 29 28 26 25 25 24 21 19
51 54 56 58 59 59 58 55 51 48 46 45 45 46 47 47 46 46 47 45 42 41 40 38 36 36 36 35 32 32 33 33 34 35 36 36 36 36 36 36 36 37 36 35 34 34 34 34 34 34 33 33 32 32 31 30 29 27 26 26 24 22 20
48 50 53 56 58 58 55 52 49 48 47 46 46 47 48 47 46 46 48 47 43 41 40 37 35 36 37 35 32 32 33 33 33 35 35 35 35 36 36 36 36 36 35 34 34 34 34 34 33 33 33 33 32 31 31 31 30 28 27 26 25 23 22
44 46 49 52 53 51 47 45 46 47 47 48 49 49 49 47 47 49 50 46 42 40 39 35 34 36 37 35 32 32 33 33 33 34 34 34 35 35 36 36 36 36 34 33 34 34 33 33 32 32 32 32 32 31 31 31 31 29 27 26 25 24 23
42 43 45 46 43 40 39 40 41 43 45 47 49 51 51 49 49 51 51 45 41 40 37 33 34 37 38 35 32 32 32 33 33 33 32 33 34 35 35 35 35 34 33 33 33 33 32 32 31 31 31 31 31 31 31 31 31 29 28 27 26 25 25
41 41 40 38 36 35 36 37 39 41 43 45 47 50 52 51 51 54 52 46 41 39 36 35 37 39 37 33 31 31 32 32 32 32 32 33 33 33 33 33 33 33 32 32 33 32 32 32 31 31 31 32 32 32 31 31 30 28 28 27 27 26 26
41 40 38 35 34 34 35 36 37 38 39 40 42 46 49 52 55 56 52 44 40 38 37 37 38 37 34 31 30 30 30 31 32 32 31 31 31 31 31 30 30 30 30 31 31 31 31 31 31 31 31 31 32 31 31 30 29 29 28 28 28 28 27
42 40 38 36 35 36 36 36 36 36 36 38 40 42 47 53 56 54 48 42 40 39 38 37 36 34 30 28 29 29 30 31 31 31 31 30 30 30 29 29 29 29 29 30 31 31 31 31 31 31 31 31 31 31 30 30 29 29 29 28 28 28 27
43 41 39 38 38 37 37 36 35 35 35 36 38 42 47 53 54 49 43 41 40 39 37 36 33 30 28 27 28 30 31 32 31 30 29 29 29 29 29 29 28 28 29 30 30 30 30 30 30 30 30 30 30 29 29 29 29 29 27 26 26 25 25
44 42 41 40 40 38 36 35 35 34 35 38 40 44 49 53 52 46 41 40 39 38 36 35 32 29 28 28 29 30 31 31 31 30 30 30 30 30 30 29 29 29 29 29 28 28 29 29 29 29 29 29 28 28 28 28 27 26 24 23 22 22 22
46 45 44 43 41 38 35 34 33 34 37 41 44 46 50 52 50 45 41 40 39 39 37 35 32 30 29 29 29 30 31 31 32 32 32 32 32 31 31 30 30 29 29 29 29 29 30 30 29 28 28 27 27 26 26 26 25 24 23 22 21 21 22
48 47 47 45 42 39 35 32 32 34 37 43 46 48 50 50 46 43 41 41 41 40 38 36 34 32 30 31 31 32 32 33 34 34 34 34 33 32 31 31 31 30 30 30 31 31 31 30 29 28 27 27 27 27 26 26 26 25 25 24 23 23 23
51 50 50 47 43 40 36 33 33 35 37 41 46 48 49 48 45 43 43 42 41 41 39 38 36 34 34 34 35 34 34 35 36 36 36 36 35 34 33 33 33 32 32 33 33 32 32 31 30 29 29 29 29 28 28 28 28 27 27 27 26 26 26
53 53 52 49 45 42 39 35 35 38 40 41 43 45 46 45 45 44 42 40 40 41 41 39 38 38 37 38 39 38 37 37 38 38 39 38 37 36 36 36 35 35 35 35 35 34 34 34 33 32 32 32 31 30 30 30 29 29 29 29 29 29 29
56 55 54 51 47 44 41 38 38 39 41 42 42 42 43 43 43 43 41 39 38 38 39 39 40 40 41 42 43 42 40 40 40 40 40 39 39 39 39 39 38 38 38 37 37 37 37 37 36 35 35 34 33 32 33 33 33 32 33 33 33 32 32
57 57 56 53 50 47 44 42 40 40 41 42 42 43 43 44 43 43 41 39 36 35 35 38 40 41 42 43 43 42 40 41 41 42 42 41 41 41 42 41 41 40 40 40 40 40 40 39 39 38 38 37 36 36 36 36 36 37 37 37 36 35 34
Wind_Direction
211 212 216 220 222 223 226 228 226 222 220 217 213 211 211 210 208 205 203 202 201 200 200 200 199 198 197 197 199 200 199 194 189 187 188 190 192 192 191 191 191 192 195 197 197 196 196 196 194 190 184 179 176 174 172 170 166 161 157 154 155 157 161
211 211 215 220 222 223 226 227 227 227 227 225 222 217 214 211 209 205 202 201 201 201 201 200 200 200 200 201 202 202 201 197 192 190 191 193 194 194 194 192 193 194 196 197 195 195 196 195 191 186 179 173 169 165 161 157 152 147 143 142 142 144 147
212 213 215 219 222 224 226 226 226 231 234 235 233 228 221 215 211 207 203 201 201 201 201 201 200 201 201 203 205 205 203 199 194 193 195 196 197 196 195 195 196 197 196 194 191 192 194 192 188 180 172 166 162 159 155 150 147 144 142 142 143 145 148
213 213 215 218 220 223 225 224 224 230 235 238 238 234 228 221 214 210 206 203 202 202 201 202 202 202 203 204 206 208 206 201 196 196 198 199 200 198 195 196 198 198 196 193 190 190 191 189 183 175 168 165 163 161 159 157 156 155 155 157 161 168 177
213 213 215 217 219 222 224 223 224 229 234 237 238 238 235 228 221 215 210 207 205 203 202 203 203 203 203 205 207 208 208 203 199 200 201 202 202 200 197 199 199 199 198 194 190 189 189 187 181 174 171 170 169 169 169 169 170 171 172 176 185 199 212
214 214 216 218 220 222 223 223 225 229 234 236 238 240 239 236 229 221 215 210 207 205 205 205 205 204 204 205 207 209 209 206 202 202 203 203 203 201 200 201 200 199 199 194 190 192 191 187 182 178 177 176 176 177 179 180 182 183 183 187 196 211 225
216 215 216 218 220 222 223 223 225 228 232 234 235 238 239 238 233 226 220 214 210 209 208 208 207 207 207 207 208 209 210 207 205 204 205 205 204 202 202 202 201 201 200 195 193 195 194 190 187 185 183 182 182 184 187 190 193 195 196 198 204 215 229
216 215 216 217 219 222 224 224 225 227 230 233 235 237 240 240 237 232 225 218 214 213 211 210 209 209 210 211 211 212 212 210 207 207 207 206 205 204 204 203 203 204 201 197 196 198 197 195 193 191 188 187 188 191 195 198 203 208 211 211 213 221 232
215 215 215 217 219 221 223 224 226 226 229 232 235 236 238 239 237 234 228 221 216 214 213 213 212 211 211 212 213 214 215 213 211 210 210 209 207 206 205 204 205 205 202 199 199 199 200 199 198 196 194 193 195 199 204 208 211 216 221 223 224 229 239
213 214 215 217 219 220 220 221 223 225 226 229 232 233 235 236 234 231 228 224 218 213 212 213 213 212 213 214 215 216 216 215 213 213 214 213 210 208 206 206 207 206 204 203 201 201 202 202 201 200 199 199 203 207 212 216 218 221 224 227 233 241 248
209 211 213 215 217 218 218 219 221 224 226 228 229 230 233 234 232 230 229 226 220 215 213 213 213 213 214 215 217 218 219 218 216 216 217 216 215 212 209 208 208 208 207 205 203 202 204 204 202 202 203 206 210 214 217 220 222 225 227 230 238 247 253
206 208 210 212 214 216 217 219 221 223 223 224 227 227 230 233 232 231 230 227 222 217 215 214 213 213 215 216 218 219 220 221 219 219 219 219 219 217 214 212 211 210 210 207 205 205 205 205 204 205 207 211 215 217 220 223 226 228 230 234 242 248 252
204 204 206 208 211 213 215 216 220 223 220 220 223 224 226 230 230 230 230 228 224 220 217 215 214 214 216 217 218 219 221 222 222 221 221 221 222 221 219 216 214 214 213 210 208 207 207 207 207 208 211 215 217 219 222 226 228 231 233 237 243 247 251
202 202 203 205 208 210 213 214 219 224 221 216 218 221 222 225 226 226 228 228 226 223 220 218 216 215 217 219 219 219 220 222 222 222 222 223 223 224 222 220 218 218 217 214 211 209 209 209 209 211 214 218 220 221 224 228 231 232 234 238 242 246 252
202 203 203 205 207 209 212 213 217 223 223 217 216 218 220 222 224 225 227 228 229 227 223 221 219 218 219 221 221 220 221 221 222 222 223 223 224 225 225 224 222 222 221 219 215 213 212 212 212 214 217 220 222 224 226 230 233 233 234 238 242 247 253
203 204 205 207 208 210 212 213 215 221 224 220 217 217 219 221 224 226 228 229 231 231 228 226 223 221 222 223 223 222 223 222 222 223 224 224 225 226 226 226 225 225 225 223 220 217 215 215 215 216 219 222 224 226 226 230 232 233 234 238 242 248 254
205 205 207 208 210 211 213 214 215 218 223 223 219 217 218 220 223 225 227 228 230 232 233 231 229 227 226 225 225 225 225 224 224 224 224 225 225 226 227 227 227 227 227 227 225 222 220 218 218 219 221 224 226 227 228 230 232 234 237 240 244 249 255
208 208 209 210 211 213 214 215 216 218 221 221 219 218 218 218 222 226 227 228 230 234 236 236 235 233 231 228 227 227 228 227 226 226 226 225 225 226 227 228 228 228 229 229 228 227 224 222 221 222 224 226 227 229 230 231 232 235 239 243 246 250 255
209 210 211 212 213 214 215 216 217 217 218 219 217 217 217 217 220 226 230 229 230 234 237 239 239 238 236 233 230 229 229 230 229 229 229 227 226 227 227 227 229 229 230 231 231 230 228 226 225 225 226 228 229 231 232 233 234 237 242 245 248 252 255
210 211 212 214 216 216 217 217 217 218 218 217 216 215 216 216 217 224 229 229 229 232 235 237 239 239 239 237 233 230 230 231 231 231 231 230 229 228 227 227 228 229 230 231 232 232 231 229 228 228 228 229 231 233 234 235 236 239 243 248 250 252 255
210 211 213 215 217 217 217 217 217 218 217 216 214 213 214 215 216 223 228 228 228 231 233 235 238 239 240 240 237 234 232 232 232 233 233 233 232 230 229 228 228 229 230 231 232 232 232 231 230 230 230 231 232 233 235 237 238 241 245 248 251 252 254
211 212 213 214 217 218 218 217 217 217 217 216 213 211 212 214 216 223 229 228 227 229 231 233 236 238 240 240 239 237 235 233 233 233 233 234 234 233 231 230 229 230 231 231 231 232 232 232 231 231 231 232 232 234 237 238 240 242 245 248 251 252 254
212 213 214 215 218 219 220 219 219 219 219 218 215 211 211 212 214 221 228 227 225 227 229 232 235 238 240 240 240 239 238 235 233 232 232 232 233 234 233 232 232 232 232 232 232 232 232 232 231 231 232 233 233 234 237 238 240 242 245 247 250 252 253
211 213 215 217 219 221 223 222 221 221 222 223 220 215 213 212 211 217 226 227 225 226 229 232 235 238 240 240 240 240 240 237 233 231 231 231 232 233 234 234 234 234 234 233 232 231 231 230 230 231 232 234 234 235 237 238 240 242 245 247 249 251 252
211 212 214 218 221 223 225 226 225 224 223 223 223 220 218 215 210 214 223 226 225 227 230 232 236 239 242 242 240 240 240 237 233 230 230 230 230 232 233 234 234 235 235 234 232 230 229 229 230 231 234 235 236 237 237 239 241 243 245 246 249 251 252
212 211 214 218 221 222 222 221 222 223 222 222 222 222 222 217 211 214 222 224 224 227 229 231 236 241 242 241 239 239 239 238 235 231 230 230 230 231 233 234 235 235 235 233 231 229 228 229 231 233 235 237 237 237 238 240 242 244 246 247 249 252 254
211 211 214 215 214 214 212 211 213 215 217 218 220 222 223 217 212 217 223 222 222 226 228 230 236 241 241 240 238 238 239 238 235 232 230 229 230 231 232 233 234 234 233 231 230 228 228 229 231 234 236 236 236 236 237 240 244 245 247 249 251 254 257
209 211 212 210 208 210 211 211 213 213 213 215 217 220 220 215 212 218 222 221 222 225 227 230 236 240 240 238 237 238 239 237 235 233 230 229 229 230 231 232 233 232 230 228 227 226 227 230 233 234 235 235 236 236 238 241 244 246 247 250 253 256 259
208 210 211 208 210 215 216 215 215 215 215 214 215 217 215 211 212 219 221 221 223 225 226 230 236 238 238 237 238 240 239 236 234 231 229 227 227 227 228 230 230 229 227 226 226 227 229 232 234 236 236 236 236 237 238 241 244 246 248 251 254 257 259
208 210 211 211 212 216 217 217 217 216 215 213 212 212 209 208 212 218 219 219 223 225 226 230 234 235 236 238 240 240 238 235 232 230 227 225 225 225 226 226 226 225 225 226 227 229 231 234 235 236 236 236 236 237 238 241 245 248 251 253 256 257 259
209 211 212 212 213 216 217 217 216 214 212 211 210 208 205 206 211 215 216 219 223 225 226 229 231 233 235 238 239 237 235 232 230 228 226 224 223 222 222 222 223 223 224 226 228 229 231 233 234 234 234 235 236 238 240 243 246 249 251 253 254 256 257
210 211 212 211 212 215 217 216 214 212 208 207 207 206 205 206 209 212 215 219 223 225 227 228 229 230 232 234 235 233 231 228 226 224 223 221 220 219 219 219 219 219 220 222 223 224 227 228 230 231 233 235 237 239 240 242 244 245 247 249 251 253 256
210 211 211 210 211 213 215 215 213 210 206 204 204 205 205 207 210 213 215 219 223 226 227 227 227 228 230 232 232 230 227 225 223 222 221 220 220 219 218 218 218 218 218 219 219 220 223 225 227 229 232 233 235 235 235 237 240 242 244 247 248 250 253
208 210 209 208 208 210 212 212 210 208 205 204 204 204 205 208 212 215 217 220 224 226 226 227 227 227 228 229 229 227 225 223 223 222 221 219 220 220 219 218 218 217 217 218 219 219 221 224 225 227 229 230 230 231 233 235 239 242 245 247 249 251 254
206 206 206 206 206 208 209 209 208 206 204 203 204 205 207 210 213 216 218 221 223 224 225 226 227 227 227 228 229 228 226 224 222 221 220 220 220 220 219 218 217 217 217 218 219 220 222 224 226 227 228 229 230 233 236 239 242 246 248 251 253 256 260
203 203 203 204 205 206 206 205 206 206 204 203 204 205 208 211 213 215 217 220 222 223 224 225 225 226 227 228 228 227 226 225 224 222 221 222 221 219 219 218 217 218 218 219 221 222 224 225 227 229 231 233 235 238 241 245 247 250 252 255 257 259 263
201 200 201 203 203 205 205 204 204 207 207 207 207 207 209 212 214 215 218 220 220 221 222 223 223 224 227 229 230 226 223 224 224 224 223 223 222 219 219 218 218 219 220 221 223 225 227 229 230 232 234 237 240 242 245 248 250 252 254 257 259 260 263
201 200 201 203 203 204 205 204 204 207 209 210 211 212 213 214 216 218 220 220 219 218 219 220 222 223 226 230 234 233 228 226 226 225 225 224 223 222 221 220 220 221 222 223 226 228 230 232 232 234 236 238 240 243 245 248 250 252 255 258 259 260 262